Volver al catálogo

OPTICUBE 04

ActivoCienciaPO
NORAD 41851·PAYLOAD·🇺🇸 United States

Lanzado Nov 11, 2016 desde Vandenberg Space Force Base

Loading…

Próximos Pases (próximas 24 horas)

TLE

ActualizadoSource: Space-Track

Época: Sep 14, 2026, 13:10 UTC

1 41851U 16067D   26257.54922661  .00001757  00000-0  11235-3 0  9991
2 41851  98.0585 114.4718 0015594 169.9859 190.1683 15.09971304538657

Sigue OPTICUBE 04 en tiempo real con AllMySat

Download on the App Store